Vertical_Velocity
-1 1 -3 2 3 3 4 5 14 -27 -39 2 -19 29 -4 -3 -4 -0 4 -1 -7 2 1 0 -3 -3 -7 -8 -5 -13 -5 -16 100 6 12 -3 4 -1
-1 1 1 -1 1 3 3 4 9 13 -53 31 -2 -5 12 -8 3 2 -3 -5 5 -0 2 4 -1 -3 -8 -4 -2 -1 -3 1 9 -2 7 5 9 7
0 -4 2 -1 0 -1 1 6 3 18 6 -52 -19 13 -6 -13 1 3 2 -2 -1 4 3 2 -3 -4 -8 -5 -3 -1 3 1 5 2 6 11 3 16
-4 -4 1 -1 2 1 0 4 -0 9 6 -20 5 -6 -4 3 -6 -7 2 4 -6 3 3 3 13 5 -8 -2 -5 2 -2 3 -1 3 2 -23 8 0
-0 -1 -3 -2 -1 -0 1 -2 2 -0 7 4 -22 -3 -4 1 -9 -2 -1 -4 -5 2 1 -1 -1 1 3 -2 -0 -4 2 -2 2 -0 1 -7 -13 -0
-0 -1 -2 -2 -6 -5 -3 3 -0 -2 -1 -2 -7 -15 -5 4 -3 -16 -12 1 -9 3 -2 -4 5 2 1 -0 3 2 7 -4 4 2 2 -0 2 -17
1 -1 -0 1 0 1 -3 -2 -1 -3 -4 -2 -8 -2 -8 -8 -1 -2 -4 -9 -4 -3 -6 -0 1 3 -4 -5 -2 -1 13 -5 -2 -2 4 -4 -5 -9
-8 -2 -1 -0 0 1 3 3 8 -2 -0 6 0 1 -2 -4 -7 -5 -2 -3 -6 2 -2 -8 8 -1 2 -0 6 -2 1 -5 -8 -17 -2 -7 4 -1
-3 -7 -3 4 1 -5 0 -0 -4 4 15 1 -3 1 -10 1 -0 -4 2 5 2 -12 5 -17 11 -5 7 3 5 3 -1 1 -6 -7 -4 -8 -5 -3
-0 -2 -2 0 -0 -5 -4 -1 -3 0 3 1 9 -1 -6 0 7 1 -6 -5 -8 -0 7 -28 17 -2 2 -0 6 1 6 6 -4 3 -5 1 0 -2
-0 3 -2 -1 -4 -3 -2 -4 -1 -2 4 5 3 8 -0 4 8 -3 5 -4 -13 7 9 -16 12 -4 -3 1 5 2 1 6 4 -3 -2 3 -1 -2
11 1 3 -0 1 1 -1 -6 -11 -4 -10 -2 5 10 5 3 6 6 3 -7 -6 7 6 -4 3 1 -6 4 3 2 -2 -4 -5 2 4 -2 4 2
-4 -3 1 2 3 1 8 0 -4 -6 -3 -3 -4 -2 1 0 3 2 6 2 -6 -5 9 -3 7 6 -3 -5 4 -1 -0 -3 -1 0 -3 4 1 2
-6 -4 -1 0 2 2 1 1 -1 -2 -3 -2 -2 1 -2 2 2 3 3 4 4 -2 2 3 -1 1 1 0 1 2 2 -3 2 1 -3 4 6 5
-1 -3 -1 -4 -1 0 3 0 -0 -0 -0 0 -0 1 1 -1 1 0 4 -1 0 2 0 2 1 2 1 0 2 4 5 4 4 0 2 -2 5 6
-5 -1 -2 0 3 -1 2 5 3 0 -3 -2 0 3 2 -1 -1 -3 -1 -0 0 3 1 2 1 -1 1 3 2 3 5 1 4 6 5 5 3 -1
-6 -3 -3 -1 -2 1 5 2 3 2 -0 1 2 -0 -1 -2 0 1 1 2 2 2 5 5 4 5 5 3 4 4 4 4 7 7 5 5 1 3
-5 -5 -1 -2 -2 -0 -1 2 4 2 1 2 3 -0 -2 -2 -0 1 1 3 2 2 3 1 -0 2 2 2 2 3 2 6 7 6 4 4 6 4
-1 1 -1 -1 -0 1 -0 -0 -3 2 1 1 -0 -0 1 5 1 2 3 3 4 4 2 1 2 5 8 6 -1 1 5 3 3 3 6 4 -0 -4
2 -2 -1 -0 1 0 1 -1 2 2 2 -0 1 2 4 0 2 3 4 5 3 5 6 3 2 2 -4 2 2 -1 -3 -3 -5 -5 -2 -2 -2 -0
-0 1 1 0 2 1 1 2 3 1 1 3 4 5 3 3 5 3 3 1 0 -2 -2 1 2 2 1 2 2 2 3 3 0 2 4 2 2 -0
-1 -0 0 2 1 0 1 2 3 2 3 3 3 4 -1 2 2 1 -1 -1 2 2 2 2 3 3 2 3 2 0 1 2 1 1 2 3 2 0
-1 -1 1 1 1 -0 3 3 3 3 4 2 -3 -2 1 2 2 3 2 2 1 0 1 0 0 1 1 2 1 -1 -0 2 2 2 1 -2 -1 -0
Height
2971 2964 2957 2951 2943 2935 2927 2919 2908 2897 2895 2902 2891 2890 2882 2880 2878 2875 2874 2874 2873 2872 2872 2871 2872 2871 2871 2871 2870 2873 2874 2875 2865 2879 2885 2888 2892 2898
2958 2950 2944 2937 2930 2921 2914 2906 2898 2886 2875 2883 2880 2872 2867 2865 2862 2858 2857 2857 2856 2855 2854 2853 2855 2855 2855 2855 2856 2856 2857 2859 2861 2865 2867 2871 2873 2881
2945 2936 2929 2921 2914 2906 2898 2890 2883 2875 2863 2862 2859 2855 2850 2846 2845 2842 2841 2839 2838 2836 2837 2837 2837 2836 2839 2840 2839 2840 2840 2842 2845 2848 2851 2852 2859 2865
2928 2919 2913 2905 2898 2891 2883 2875 2866 2859 2850 2841 2840 2836 2832 2828 2824 2823 2821 2820 2818 2818 2816 2815 2817 2819 2822 2822 2825 2824 2825 2827 2829 2832 2833 2836 2840 2848
2913 2905 2898 2890 2883 2875 2868 2860 2852 2845 2837 2828 2820 2820 2814 2810 2805 2803 2802 2800 2798 2797 2796 2796 2796 2800 2803 2806 2807 2809 2810 2811 2814 2817 2820 2822 2826 2827
2901 2893 2885 2877 2869 2861 2854 2846 2838 2830 2824 2816 2809 2804 2799 2796 2790 2785 2781 2782 2779 2778 2777 2777 2778 2781 2784 2788 2791 2793 2796 2797 2799 2803 2807 2810 2813 2817
2889 2881 2873 2865 2857 2849 2840 2833 2826 2818 2812 2805 2798 2791 2786 2782 2779 2774 2766 2763 2762 2761 2759 2759 2760 2763 2766 2771 2774 2777 2779 2782 2785 2788 2793 2797 2800 2803
2874 2866 2858 2851 2843 2836 2830 2823 2817 2809 2802 2794 2786 2778 2773 2770 2766 2761 2755 2751 2748 2753 2747 2743 2746 2745 2751 2754 2759 2763 2766 2768 2772 2776 2780 2784 2787 2790
2861 2852 2845 2838 2831 2824 2817 2811 2804 2800 2796 2785 2774 2768 2760 2759 2754 2749 2745 2741 2738 2739 2734 2728 2732 2730 2736 2740 2745 2748 2752 2754 2759 2763 2766 2770 2774 2778
2850 2842 2835 2828 2821 2814 2807 2800 2795 2790 2783 2774 2765 2757 2752 2748 2743 2739 2735 2730 2728 2727 2723 2716 2720 2718 2721 2726 2731 2735 2738 2741 2746 2750 2754 2757 2762 2767
2842 2835 2828 2819 2812 2806 2798 2789 2783 2777 2770 2762 2755 2748 2743 2739 2734 2729 2726 2722 2716 2715 2711 2708 2707 2708 2710 2715 2719 2723 2726 2730 2734 2737 2742 2746 2750 2756
2833 2826 2819 2811 2803 2797 2788 2779 2769 2762 2755 2749 2745 2739 2735 2730 2726 2723 2719 2713 2707 2699 2700 2699 2698 2699 2701 2705 2708 2712 2715 2720 2723 2727 2730 2736 2741 2746
2823 2816 2809 2802 2795 2787 2780 2770 2761 2752 2745 2739 2734 2729 2725 2722 2718 2714 2709 2703 2696 2691 2691 2688 2688 2691 2691 2694 2698 2702 2705 2710 2714 2719 2723 2727 2733 2739
2815 2808 2800 2793 2785 2777 2769 2760 2752 2745 2738 2732 2726 2721 2717 2713 2709 2704 2699 2693 2687 2682 2681 2680 2679 2681 2682 2685 2689 2694 2698 2702 2705 2711 2715 2722 2728 2734
2806 2798 2791 2782 2775 2767 2760 2752 2746 2739 2732 2725 2719 2714 2709 2703 2699 2693 2687 2681 2677 2674 2672 2671 2670 2671 2672 2675 2680 2686 2691 2696 2699 2705 2710 2717 2724 2729
2796 2789 2781 2773 2765 2758 2751 2746 2739 2732 2725 2718 2712 2707 2701 2695 2689 2682 2675 2671 2669 2667 2665 2664 2663 2663 2664 2667 2671 2677 2682 2688 2695 2701 2707 2713 2718 2723
2787 2780 2771 2763 2756 2750 2745 2739 2734 2727 2721 2714 2707 2699 2692 2685 2678 2672 2667 2664 2662 2661 2661 2660 2658 2657 2659 2661 2665 2670 2676 2683 2691 2698 2703 2708 2713 2719
2781 2772 2764 2757 2749 2743 2738 2733 2729 2722 2715 2708 2700 2691 2684 2677 2671 2666 2663 2662 2661 2661 2661 2660 2659 2659 2660 2660 2663 2668 2674 2681 2689 2695 2701 2707 2713 2718
2775 2767 2759 2751 2745 2740 2734 2729 2723 2717 2709 2702 2694 2687 2680 2675 2669 2665 2663 2663 2663 2662 2661 2662 2662 2663 2665 2665 2667 2672 2678 2683 2689 2695 2702 2707 2712 2718
2770 2761 2754 2747 2742 2736 2731 2725 2719 2712 2704 2697 2691 2686 2680 2674 2670 2668 2667 2667 2666 2666 2667 2667 2668 2669 2670 2674 2676 2679 2683 2688 2693 2698 2703 2708 2713 2719
2763 2756 2750 2745 2739 2735 2729 2723 2716 2708 2701 2696 2691 2687 2682 2678 2676 2674 2673 2671 2671 2671 2672 2674 2675 2676 2677 2679 2682 2685 2688 2692 2695 2700 2705 2710 2714 2719
2759 2753 2748 2742 2738 2733 2727 2720 2712 2706 2702 2698 2695 2691 2688 2684 2682 2680 2679 2678 2678 2677 2678 2678 2678 2679 2680 2682 2684 2687 2690 2693 2696 2700 2704 2708 2713 2717
2755 2750 2746 2741 2736 2731 2724 2717 2712 2707 2704 2702 2698 2696 2693 2690 2688 2686 2685 2683 2682 2681 2680 2680 2681 2682 2683 2684 2686 2688 2691 2694 2697 2701 2704 2707 2711 2716